EHI
0 0 0 0 0 0 0 0 0 0 0 0 0 0 0 0 0 0 1 2 2 3 3 3 5 6 6 6 6 7 8 9 10 7 4 3 2 1 0 0 0 0 0 0
0 0 0 0 0 0 0 0 0 0 0 0 0 0 0 0 0 0 0 1 1 2 2 3 5 6 6 6 6 6 6 7 8 7 4 2 2 1 0 0 0 0 0 0
0 0 0 0 0 0 0 0 0 0 0 0 0 0 0 0 0 0 0 0 0 1 1 3 4 5 6 6 6 6 4 4 5 5 3 2 1 1 0 0 0 0 0 0
0 0 0 0 0 0 0 0 0 0 0 0 0 0 0 0 0 0 0 0 0 0 1 3 3 4 5 6 6 5 3 3 3 4 3 1 0 0 0 0 0 0 0 0
0 0 0 0 0 0 0 0 0 0 0 0 0 0 0 0 0 0 0 0 0 0 1 2 3 3 4 4 3 3 1 1 2 2 1 0 0 0 0 0 0 0 0 0
0 0 0 0 0 0 0 0 0 0 0 0 0 0 0 0 0 0 0 0 0 0 1 1 1 2 2 2 1 1 1 1 1 1 0 0 0 0 0 0 0 0 0 0
0 0 0 0 0 0 0 0 0 0 0 0 0 0 0 0 0 0 0 0 0 0 0 0 0 1 1 1 0 0 1 2 2 1 0 0 0 0 0 0 0 0 0 0
0 0 0 0 0 0 0 0 0 0 0 0 0 0 0 0 0 0 0 0 0 0 0 0 0 0 0 0 0 0 1 2 2 1 0 0 0 0 0 0 0 0 0 0
0 0 0 0 0 0 0 0 0 0 0 0 0 0 0 0 0 0 0 0 0 0 0 0 0 0 0 0 0 0 0 1 1 1 0 0 0 0 0 0 0 0 0 0
0 0 0 0 0 0 0 0 0 0 0 0 0 0 0 0 0 0 0 0 0 0 0 0 0 0 0 0 0 0 0 0 0 0 0 0 0 0 0 0 0 0 0 0
0 0 0 0 0 0 0 0 0 0 0 0 0 0 0 0 0 0 0 0 0 0 0 0 0 0 0 0 0 0 0 0 0 0 0 0 0 0 0 0 0 0 0 0
0 0 0 0 0 0 0 0 0 0 0 0 0 0 0 0 0 0 0 0 0 0 0 0 0 0 0 0 0 0 0 0 0 0 0 0 0 0 0 0 0 0 0 0
0 0 0 0 0 0 0 0 0 0 0 0 0 0 0 0 0 0 0 0 0 0 0 0 0 0 0 0 0 0 0 0 0 0 0 0 0 0 0 0 0 0 0 0
0 0 0 0 0 0 0 0 0 0 0 0 0 0 0 0 0 0 0 0 0 0 0 0 0 0 0 0 0 0 0 0 0 0 0 0 0 0 0 0 0 0 0 0
0 0 0 0 0 0 0 0 0 0 0 0 0 0 0 0 0 0 0 0 0 0 0 0 0 0 0 0 0 0 0 0 0 0 0 0 0 0 0 0 0 0 0 0
0 0 0 0 0 0 0 0 0 0 0 0 0 0 0 0 0 0 0 0 0 0 0 0 0 0 0 0 0 0 0 0 0 0 0 0 0 0 0 0 0 0 0 0
0 0 0 0 0 0 0 0 0 0 0 0 0 0 0 0 0 0 0 0 0 0 0 0 0 0 0 0 0 0 0 0 0 0 0 0 0 0 0 0 0 0 0 0
0 0 0 0 0 0 0 0 0 0 0 0 0 0 0 0 0 0 0 0 0 0 0 0 0 0 0 0 0 0 0 0 0 0 0 0 0 0 0 0 0 0 0 0
0 0 0 0 0 0 0 0 0 0 0 0 0 0 0 0 0 0 0 0 0 0 0 0 0 0 0 0 0 0 0 0 0 0 0 0 0 0 0 0 0 0 0 0
0 0 0 0 0 0 0 0 0 0 0 0 0 0 0 0 0 0 0 0 0 0 0 0 0 0 0 0 0 0 0 0 0 0 0 0 0 0 0 0 0 0 0 0
0 0 0 0 0 0 0 0 0 0 0 0 0 0 0 0 0 0 0 0 0 0 0 0 0 0 0 0 0 0 0 0 0 0 0 0 0 0 0 0 0 0 0 0
0 0 0 0 0 0 0 0 0 0 0 0 0 0 0 0 0 0 0 0 0 0 0 0 0 0 0 0 0 0 0 0 0 0 0 0 0 0 0 0 0 0 0 0
0 0 0 0 0 0 0 0 0 0 0 0 0 0 0 0 0 0 0 0 0 0 0 0 0 0 0 0 0 0 0 0 0 0 0 0 0 0 0 0 0 0 0 0
0 0 0 0 0 0 0 0 0 0 0 0 0 0 0 0 0 0 0 0 0 0 0 0 0 0 0 0 0 0 0 0 0 0 0 0 0 0 0 0 0 0 0 0
0 0 0 0 0 0 0 0 0 0 0 0 0 0 0 0 0 0 0 0 0 0 0 0 0 0 0 0 0 0 0 0 0 0 0 0 0 0 0 0 0 0 0 0
0 0 0 0 0 0 0 0 0 0 0 0 0 0 0 0 0 0 0 0 0 0 0 0 0 0 0 0 0 0 0 0 0 0 0 0 0 0 0 0 0 0 0 0
Wind_Speed
5 6 4 3 2 3 2 2 4 5 2 0 3 5 5 3 2 2 3 4 4 5 4 4 4 3 3 2 3 2 1 1 1 0 0 1 1 1 1 2 2 2 3 4
6 4 4 3 2 1 1 3 4 5 3 1 3 6 4 3 1 1 2 4 5 6 6 6 5 4 3 3 3 3 2 1 1 1 1 1 1 2 2 1 2 3 3 4
3 3 4 4 5 4 2 3 4 5 5 2 2 4 2 2 1 2 3 3 4 5 6 6 6 6 4 4 3 2 2 2 2 1 0 1 1 0 0 1 1 2 3 4
2 4 5 5 4 3 4 4 4 4 3 3 1 4 4 2 2 4 4 5 5 6 6 5 6 6 5 5 4 3 3 2 2 0 1 1 1 1 2 2 2 2 3 3
3 4 4 4 4 3 4 6 4 3 2 2 1 2 6 1 3 5 5 5 5 5 5 5 6 6 6 5 3 3 3 3 2 1 1 2 1 1 1 1 2 2 2 3
2 2 1 3 4 3 4 4 2 1 2 2 3 3 5 2 3 5 5 5 6 6 6 6 6 6 6 5 4 3 3 3 3 2 2 2 2 2 1 2 2 2 2 2
6 3 3 3 5 5 5 4 4 5 2 4 1 2 5 3 2 3 4 5 6 6 6 7 8 8 8 7 6 5 4 4 3 2 2 2 3 3 3 3 3 2 2 3
4 6 4 4 2 2 2 2 3 2 3 4 2 4 4 2 3 3 3 4 5 6 6 6 6 6 6 7 6 5 5 5 4 3 3 2 3 2 2 3 2 3 3 3
0 5 3 3 2 1 1 1 1 2 1 3 4 5 6 3 5 5 5 5 6 6 6 6 7 6 6 6 6 5 5 5 5 4 3 3 3 2 3 3 3 2 3 3
2 4 5 4 3 4 2 2 2 2 0 4 5 4 4 5 6 6 6 6 6 6 7 7 7 6 6 5 5 4 4 5 5 4 3 3 3 3 3 3 4 3 3 3
1 1 5 4 1 1 2 2 2 1 1 2 4 6 3 4 4 4 5 6 6 7 7 7 7 7 6 6 4 4 4 5 5 5 4 3 3 3 2 3 4 3 3 4
1 2 3 5 2 0 2 2 2 1 2 2 2 8 3 3 3 4 5 6 6 6 6 6 7 7 6 6 5 5 4 4 5 4 4 3 3 3 2 3 4 3 4 4
3 3 3 6 4 3 2 1 1 2 2 2 3 9 3 3 5 6 7 7 6 7 7 7 7 6 7 6 6 5 5 5 5 5 4 4 4 3 3 4 4 3 3 3
4 3 4 5 5 2 3 3 1 3 2 4 7 10 9 7 7 8 8 7 7 6 7 7 7 7 7 7 6 6 6 5 5 5 5 4 4 4 4 4 3 3 3 3
3 2 3 6 5 4 5 6 4 5 6 7 8 8 11 7 7 7 7 7 7 8 8 8 7 7 7 7 7 7 6 6 5 5 5 5 5 4 4 3 3 3 3 3
2 2 1 4 4 4 8 8 7 7 6 8 8 11 8 6 4 5 6 7 8 9 9 8 8 8 8 8 8 8 8 7 6 5 5 5 5 4 4 4 3 3 3 2
2 2 0 4 4 5 8 7 7 5 5 6 8 9 4 4 5 5 6 7 8 8 9 8 8 7 7 7 7 7 8 7 6 5 6 6 5 4 4 4 3 4 3 2
4 3 1 2 4 6 7 1 4 5 6 6 7 6 5 6 6 5 5 5 6 7 8 8 8 8 7 7 7 7 7 7 6 6 6 6 5 4 4 3 3 4 3 3
3 4 2 1 2 9 7 2 3 3 7 6 7 8 6 4 5 5 4 3 4 6 7 7 7 7 7 8 7 7 7 7 7 7 7 7 6 5 4 4 4 4 3 3
3 3 3 2 2 7 6 2 1 2 6 4 4 5 4 2 4 6 3 4 6 6 6 6 7 7 7 8 7 6 7 7 7 8 8 8 6 5 5 4 4 4 3 4
2 1 3 4 5 11 6 1 3 2 7 3 3 4 3 4 6 6 5 6 6 6 7 6 6 6 6 7 6 6 7 7 8 8 8 8 7 6 5 4 4 3 3 3
7 6 6 5 5 11 3 4 6 7 3 2 3 4 4 5 6 6 6 6 7 7 7 7 6 7 6 6 5 6 7 8 8 7 7 8 7 6 4 4 4 3 3 2
7 8 7 10 10 5 5 6 5 2 3 3 3 4 3 4 6 6 6 6 6 7 7 6 6 7 7 6 5 6 8 8 8 7 7 7 7 5 5 4 3 2 2 2
4 3 4 6 10 6 6 6 5 3 4 4 4 4 3 5 6 6 6 6 6 6 7 6 6 7 7 7 6 6 7 7 7 7 7 6 6 5 5 4 3 2 2 2
5 5 4 7 8 6 5 6 5 4 4 4 4 3 4 4 5 5 5 6 6 6 6 6 6 6 7 7 7 7 7 6 6 7 6 6 5 4 4 4 3 3 2 2
6 8 8 8 6 4 5 4 3 3 4 4 4 4 3 3 5 5 5 5 5 6 6 6 6 7 7 7 7 7 6 6 6 6 6 4 4 4 3 4 4 6 5 6
Wind_Direction
20 50 28 317 272 243 240 247 270 271 272 358 234 253 275 304 343 333 333 339 332 317 320 337 344 351 357 6 1 337 65 8 11 0 78 183 206 214 203 212 197 190 191 178
35 19 311 300 328 338 291 280 284 296 312 264 253 262 268 267 258 323 325 334 332 332 340 343 350 355 353 354 344 335 356 301 263 253 240 232 234 228 220 217 216 202 198 189
91 293 322 359 3 357 312 256 277 291 324 346 310 299 276 282 272 2 1 351 346 339 332 337 345 346 347 344 328 326 328 318 282 277 262 24 39 19 108 275 256 237 217 200
22 329 351 2 351 346 292 293 286 291 316 308 331 284 283 278 319 333 334 344 343 338 336 336 341 339 336 329 323 337 326 333 320 267 193 179 202 240 265 243 244 264 234 213
340 348 358 351 327 321 267 300 290 263 244 308 321 244 288 353 305 305 314 321 332 334 333 334 335 326 321 323 330 338 332 332 325 317 227 210 233 268 289 284 251 257 253 229
314 334 349 303 308 297 303 325 328 52 90 280 251 198 284 277 269 301 313 317 328 334 341 342 338 337 334 339 350 348 333 324 325 330 284 232 232 253 264 267 245 242 257 238
341 338 346 346 341 354 23 38 13 359 1 264 222 202 255 291 306 301 306 318 330 341 346 344 343 342 343 343 346 339 338 328 321 314 301 278 246 233 231 240 231 240 258 258
353 316 336 1 7 327 346 93 137 234 267 298 323 242 256 300 332 342 340 338 344 347 342 337 333 334 336 337 339 337 335 330 327 322 301 302 277 247 250 257 249 236 240 260
328 285 318 344 331 29 16 52 180 147 281 283 283 299 307 334 349 352 350 354 344 341 340 337 335 336 335 333 330 328 328 328 324 317 316 306 293 277 270 268 259 253 259 265
168 277 299 317 2 24 53 138 77 102 242 289 302 294 289 313 315 328 337 336 334 337 341 338 334 333 332 326 322 330 334 326 319 315 313 312 301 281 271 270 263 258 266 267
136 217 309 349 24 314 19 41 68 122 170 192 285 280 260 258 280 301 312 322 325 327 327 327 328 330 326 326 331 339 338 332 330 330 320 316 309 308 293 273 268 259 259 263
134 122 281 271 258 234 158 178 151 163 261 209 229 273 299 273 294 307 311 317 323 322 323 325 328 332 334 335 338 337 330 330 326 325 320 309 305 300 298 288 280 269 261 259
127 102 342 338 348 360 356 286 190 153 147 197 221 268 321 339 326 321 318 317 321 326 329 333 335 338 337 335 335 330 328 325 325 326 323 315 309 298 288 289 283 280 274 269
110 132 181 221 248 260 284 284 233 149 192 236 238 264 296 315 317 318 318 316 318 325 330 332 333 333 333 335 334 330 330 328 329 329 324 314 307 303 294 295 290 284 278 261
105 202 236 253 259 262 263 268 244 219 220 223 251 259 278 294 295 301 310 320 328 332 335 334 330 329 332 336 336 333 328 329 327 325 318 310 308 309 309 306 302 297 291 271
108 200 273 281 264 269 279 269 247 243 244 245 265 274 274 286 298 308 315 323 326 327 329 329 330 331 331 332 332 332 328 325 322 317 309 307 305 306 305 302 300 300 292 281
163 152 235 281 313 324 282 250 216 222 223 214 237 257 291 302 305 304 310 315 313 316 321 325 325 321 322 323 324 323 320 321 321 313 310 313 306 299 299 300 300 294 283 280
158 151 176 298 5 264 253 206 198 229 254 237 254 273 278 274 288 290 287 292 302 314 319 320 320 321 322 322 322 320 321 324 324 321 319 314 308 298 297 297 294 293 282 268
160 158 159 180 278 280 290 255 183 208 273 240 243 269 287 306 313 304 292 289 295 305 308 310 311 314 320 324 326 325 327 330 330 328 322 318 313 304 298 291 284 280 274 271
75 110 144 160 227 258 263 261 197 114 289 262 222 258 284 340 312 294 312 316 312 312 314 316 319 322 323 323 330 331 328 331 328 323 318 316 313 302 292 282 280 277 268 265
136 133 184 202 236 265 261 230 120 164 259 280 223 246 247 234 247 279 309 311 310 312 315 319 320 320 318 323 332 329 327 322 316 317 317 318 317 308 295 292 279 263 262 264
180 177 195 175 214 257 215 143 190 225 259 251 248 250 250 262 281 293 304 311 318 320 322 325 323 318 320 327 330 325 319 315 318 321 321 321 321 317 314 307 292 269 251 253
203 195 189 196 218 246 190 212 237 247 257 260 253 262 260 275 284 294 301 307 311 313 317 320 319 317 322 329 328 317 313 319 323 324 322 320 323 324 325 317 303 286 256 242
240 191 197 251 263 258 250 257 267 254 255 268 266 271 268 270 280 292 300 306 310 313 315 318 320 320 320 324 323 312 312 320 322 322 320 320 325 329 335 329 319 307 272 250
218 174 208 254 274 297 274 243 251 260 267 279 283 275 268 271 283 287 294 300 303 309 312 314 314 312 311 316 317 317 318 320 321 319 319 322 323 325 328 331 328 320 307 267
194 184 191 232 232 220 262 278 264 254 265 271 282 295 290 270 277 288 290 294 300 306 311 314 315 315 314 315 315 317 318 319 318 321 324 321 322 324 328 330 332 340 330 328